User: anonymous
Location: Oshawa
(43.9000°N, 78.8670°W)
Time: 15:36:38
(UTC-04:00)
Language:

HST - Orbit

View from above orbital plane
View from above orbital plane
View from above satellite
View from above satellite

Ground track
Ground track

The orbit data is extracted from the following two-line orbital elements,

1 20580U 90037B   14212.08123550  .00001455  00000-0  86739-4 0   665
2 20580 028.4703 108.5523 0003245 035.6199 069.1495 15.05567770131330
Epoch (UTC): 31 July 2014 01:56:58
Eccentricity: 0.0003245
inclination: 28.4703°
perigee height: 547 km
apogee height: 552 km
right ascension of ascending node: 108.5523°
argument of perigee: 35.6199°
revolutions per day: 15.05567770
mean anomaly at epoch: 69.1495°
orbit number at epoch: 13133

The dashed part of the orbit path shows where the satellite is in the earth's shadow,  

DLR